Dewpoint
28 29 30 30 31 31 32 32 31 32 32 33 33 33 32 31 27 26 25 24 23 22 21 21 22 23 23 22 23 23 22 25 26 26 25 24 22 27 31 33 35 37 36 35 35 36 36 38 38 39 40 41 39 39 41 44 44 44 45 47 49 49 50 49 49 48 49 47 46 47 47 46 46 46
28 29 29 30 31 32 32 32 32 32 32 32 32 32 32 32 30 28 25 25 24 22 19 20 19 20 21 22 23 22 22 28 25 24 24 24 24 27 29 32 33 34 34 35 35 35 35 36 37 38 40 41 41 40 41 43 45 44 44 45 48 47 45 46 46 47 47 48 48 48 47 47 46 46
27 27 28 29 30 31 31 32 32 32 31 31 31 32 32 32 31 31 28 26 26 23 20 18 17 17 19 20 21 23 23 28 26 23 24 25 29 29 29 30 32 33 34 34 34 35 35 36 36 37 39 41 41 42 41 42 44 45 44 45 45 45 44 43 44 44 45 46 46 47 47 47 47 46
27 26 25 28 29 29 30 31 31 31 30 31 30 31 31 31 31 31 30 28 27 24 22 20 17 16 17 19 19 20 22 26 29 23 24 25 28 28 28 30 30 31 32 33 33 34 35 36 36 36 37 39 40 42 42 41 41 43 44 44 44 44 43 43 42 43 43 44 45 45 47 47 47 46
27 26 26 26 27 27 28 28 29 30 30 30 30 30 30 30 30 30 30 29 27 20 18 17 16 15 16 17 18 19 20 21 26 27 24 25 26 26 27 28 31 31 31 32 32 33 34 34 35 36 36 37 40 41 40 41 41 42 43 44 44 44 43 42 42 42 43 43 44 44 43 43 46 46
26 25 25 25 25 24 27 20 26 29 28 28 29 29 30 29 29 30 29 28 28 24 16 14 12 13 15 15 17 17 18 18 23 24 23 24 25 26 27 27 28 31 31 31 31 32 33 34 34 34 36 38 39 40 40 39 40 40 42 43 43 43 44 43 41 41 41 42 43 43 43 43 42 45
26 25 25 25 25 24 26 26 21 21 24 28 28 28 29 29 29 29 30 29 27 26 20 16 11 12 13 13 14 16 17 18 20 22 22 22 24 25 26 27 27 30 32 32 32 32 32 32 33 33 35 37 38 40 39 39 39 39 41 41 40 40 41 42 42 41 40 41 42 43 42 42 42 42
25 25 25 24 25 25 25 26 26 27 27 27 26 27 28 29 29 29 29 29 27 25 24 17 14 11 12 12 12 16 17 17 18 19 20 21 21 22 24 25 26 28 32 32 33 32 32 32 31 32 34 37 37 38 39 39 39 39 39 38 38 39 40 41 42 41 40 39 39 41 41 42 41 42
25 25 25 25 25 25 25 25 25 25 25 25 25 25 26 28 28 28 28 28 27 25 25 23 17 12 11 12 12 16 15 16 17 18 18 19 19 20 21 23 24 27 30 32 32 32 32 32 31 32 33 35 37 39 39 39 39 39 38 38 38 39 39 39 39 40 40 40 39 39 39 39 39 40
24 24 24 25 25 24 23 23 24 24 23 24 24 24 25 26 26 28 28 28 26 26 26 26 19 13 11 9 10 14 14 15 15 16 17 18 18 18 19 20 20 22 25 27 30 31 31 31 31 31 32 34 36 37 39 39 39 38 37 38 39 39 39 38 37 37 37 38 38 36 34 34 34 36
24 24 24 24 24 24 23 23 23 23 22 23 23 24 24 24 25 27 28 27 27 26 27 27 23 18 13 13 11 11 14 14 15 15 16 17 18 18 18 19 20 20 22 26 28 28 29 30 30 32 32 32 34 36 37 39 38 37 37 38 38 38 38 38 38 37 36 36 36 36 35 36 33 33
24 24 24 24 24 24 24 24 23 23 23 24 23 23 23 23 24 26 27 27 27 27 27 27 26 21 17 11 12 12 13 13 13 14 15 15 16 17 17 18 19 19 20 21 24 28 28 29 30 31 33 33 34 35 35 36 36 35 36 37 38 38 38 37 36 36 36 35 35 35 34 34 33 33
25 25 24 24 24 24 25 26 26 26 26 23 22 22 23 22 23 23 24 26 27 27 27 27 27 23 20 16 15 13 14 14 13 14 15 15 16 17 16 16 18 19 19 20 21 23 24 25 26 28 29 30 32 32 34 34 33 35 36 37 36 36 36 35 35 35 35 34 34 33 32 32 32 33
26 26 25 25 26 26 26 27 27 27 27 27 25 23 22 23 23 22 23 25 27 27 27 26 27 24 22 19 17 15 14 14 14 15 15 16 16 16 15 16 15 17 18 19 20 21 24 24 24 26 26 27 29 29 29 29 30 31 33 34 35 35 35 34 34 34 34 33 33 32 32 31 32 32
26 26 26 26 26 26 26 26 27 27 28 28 28 27 27 26 24 22 22 24 26 26 26 27 27 25 24 23 20 18 16 15 15 15 16 17 17 16 15 13 14 16 17 18 19 20 22 24 23 24 25 25 26 26 27 30 30 30 30 31 33 35 34 33 33 33 32 32 31 31 31 31 31 31
25 25 25 25 25 25 26 25 26 27 28 29 29 28 28 27 27 27 24 23 23 25 26 26 26 26 25 24 22 19 17 15 15 15 16 18 17 17 16 16 15 16 17 17 17 18 20 23 23 24 24 25 24 24 26 28 29 29 30 30 32 33 33 33 32 32 32 31 31 31 31 31 31 31
23 23 23 23 24 24 26 26 25 24 25 28 29 29 28 28 28 28 28 27 25 25 25 25 26 26 26 25 22 20 18 17 14 15 16 17 18 17 17 17 17 16 17 17 18 18 19 22 22 23 24 25 24 25 28 28 29 30 30 30 31 32 32 32 32 31 31 31 31 31 31 30 30 31
24 23 23 22 22 22 23 24 24 24 23 24 26 27 27 27 27 28 28 28 28 26 25 25 24 26 26 24 23 21 21 17 16 16 15 17 16 17 17 17 17 18 18 18 19 18 19 20 20 21 22 24 24 24 26 29 29 30 30 31 31 31 31 32 32 32 31 30 30 30 30 30 30 30
26 26 24 24 24 23 23 23 23 22 22 22 23 24 25 26 26 26 27 27 27 27 25 24 24 23 24 24 23 21 21 19 19 18 17 17 17 18 18 19 19 18 18 19 19 16 18 19 18 19 20 21 22 22 26 29 30 30 30 30 31 31 31 31 32 31 30 30 30 29 29 29 29 29
25 26 26 26 26 25 23 24 26 25 24 22 22 23 24 25 26 26 28 29 29 28 27 25 25 24 24 27 22 21 20 20 19 17 17 17 18 17 16 15 12 14 18 19 19 16 16 18 17 17 19 19 19 19 20 26 29 29 30 30 30 31 31 31 31 31 30 29 29 29 28 28 27 28
22 22 23 24 25 26 26 26 27 28 27 24 23 22 23 24 24 25 26 29 29 29 29 29 29 29 29 29 29 28 26 22 21 19 18 17 17 16 15 13 11 12 13 15 18 16 13 16 16 14 13 17 18 18 17 19 26 28 29 29 29 29 29 29 29 28 28 27 27 26 26 26 26 26
19 18 22 23 22 23 24 27 28 28 27 26 24 23 23 22 23 24 24 25 28 30 30 30 30 30 29 29 29 29 28 26 24 19 18 17 17 16 16 15 14 10 11 14 18 15 12 14 14 11 8 9 9 12 15 15 18 25 26 28 28 28 28 28 27 27 26 26 26 26 26 26 26 23
20 20 22 23 23 22 23 25 25 27 27 27 25 24 24 23 23 24 24 24 25 27 27 28 28 28 29 28 28 27 28 27 25 21 21 19 17 16 16 15 13 10 10 10 13 13 8 12 12 11 7 5 10 7 9 14 14 16 19 21 23 27 27 27 27 27 27 26 26 26 26 26 25 22
21 22 22 23 24 25 25 26 26 25 26 27 27 26 24 24 23 25 26 26 25 25 26 27 28 29 29 28 27 26 27 26 23 22 22 20 19 17 16 15 14 12 12 13 16 14 10 11 11 12 11 8 5 6 4 7 9 12 11 15 15 20 24 25 26 26 26 26 26 26 25 25 24 21
22 22 23 23 24 25 25 26 26 27 27 27 27 27 25 25 25 26 25 25 26 24 24 25 27 27 28 28 27 27 27 26 24 23 23 22 21 19 18 16 15 15 13 15 20 15 11 12 11 9 6 1 3 1 -1 3 6 6 6 8 10 9 10 10 16 10 21 24 24 22 23 23 24 23
23 23 24 23 24 25 25 26 26 26 27 27 26 28 28 27 27 26 25 24 25 24 23 23 24 26 27 27 27 27 27 26 25 23 23 22 21 21 20 18 16 15 15 16 21 16 12 11 12 10 4 2 -1 -3 -2 -3 -2 3 6 3 4 5 5 7 5 6 3 5 4 15 18 22 22 23
23 23 23 23 25 26 27 27 27 27 27 27 26 28 29 29 28 27 24 23 24 24 23 23 24 25 26 27 26 26 26 27 25 23 23 23 21 21 17 17 18 18 17 16 20 17 14 12 12 11 8 5 4 -8 -7 -5 -4 -3 -0 1 2 2 1 2 2 3 -1 -1 -2 9 14 17 20 20
24 24 23 23 26 27 26 27 27 27 27 26 27 27 28 29 28 27 24 23 23 24 23 24 24 24 26 26 26 26 26 26 26 24 23 22 22 18 14 15 14 17 17 17 19 18 16 12 11 10 10 7 5 1 -1 -7 -5 -3 0 -2 -0 1 2 0 1 2 1 -1 -3 -1 1 2 4 9
23 25 26 26 26 25 25 26 26 26 26 26 27 27 28 29 28 27 24 23 23 23 23 23 24 24 25 26 26 26 25 22 19 16 13 12 11 10 9 8 7 8 12 16 19 18 16 13 11 9 7 6 7 3 3 -1 -1 -5 -4 -1 -6 -3 0 1 1 2 1 -0 -1 -2 -2 -2 -2 2
22 23 24 25 25 25 24 23 22 22 23 26 27 28 29 29 28 27 25 24 23 23 23 23 23 24 24 22 21 22 21 21 19 17 14 12 11 12 11 9 6 4 4 4 8 12 14 13 12 10 8 6 7 5 2 -3 -6 -8 -3 -1 -4 -4 -4 -0 0 2 3 2 1 0 -0 -1 -1 2
19 19 21 22 25 25 25 25 25 26 26 26 26 27 28 28 28 27 26 24 24 23 21 22 22 18 17 16 17 19 20 20 18 17 15 15 13 12 12 10 6 4 2 2 2 3 7 10 10 10 8 1 -4 -1 2 -2 -4 -7 -7 -7 -3 -4 -9 -2 -1 1 2 2 1 2 1 1 1 4
17 17 19 19 22 24 23 22 20 20 20 21 22 24 26 27 27 27 27 26 24 21 18 14 12 11 14 16 17 17 18 17 15 15 15 15 12 12 11 10 6 3 2 1 -0 -1 -1 1 4 6 7 3 3 -9 -11 -7 -2 -4 -6 -5 -5 -7 -8 -4 -4 -5 1 1 -1 -3 1 3 3 3
13 14 15 15 17 19 19 19 18 18 18 18 20 21 22 23 24 24 24 23 20 18 17 15 14 13 14 14 14 14 14 13 13 14 14 13 12 11 12 12 7 4 4 2 -4 -4 -5 -5 -5 -6 -6 -10 -6 -2 -3 -9 -9 -9 -4 -6 -8 -7 -11 -9 -7 -5 -6 -6 -8 -9 -6 -4 -3 3
11 11 12 13 13 14 16 17 17 17 17 17 16 17 19 18 19 18 18 17 15 15 16 14 13 13 13 12 12 12 11 9 10 11 13 11 11 11 11 9 6 6 6 3 -2 -4 -7 -7 -6 -6 -7 -10 -13 -9 -3 -3 -3 -7 -7 -10 -6 -6 -6 -9 -7 -8 -5 -9 -8 -8 -10 -8 -5 -2
9 9 11 11 12 12 12 13 14 15 14 14 13 13 13 13 14 13 13 12 12 12 12 12 12 11 12 11 10 10 8 8 9 9 8 9 10 11 10 8 5 5 4 0 -3 -7 -8 -6 -5 -8 -11 -11 -10 -9 -1 -6 -9 -9 -11 -10 -10 -6 -7 -6 -9 -8 -8 -10 -12 -9 -8 -10 -6 -3
8 8 9 9 10 11 11 11 12 12 12 12 12 12 10 9 10 11 10 11 11 11 11 10 10 10 10 9 9 8 7 7 7 7 7 8 9 9 9 7 5 4 3 1 -3 -7 -8 -7 -4 -4 -5 -12 -12 -13 -10 4 2 -5 -6 -10 -12 -9 -9 -9 -9 -11 -10 -10 -9 -9 -9 -7 -5 -6
5 6 7 7 8 9 10 10 10 10 10 10 10 9 8 7 7 8 9 10 9 9 9 9 9 9 8 7 6 5 5 6 6 6 6 7 7 7 6 3 3 2 1 -1 -4 -7 -7 -7 -7 -4 -5 -12 -12 -7 -6 -17 -3 5 -4 -5 -10 -10 -8 -11 -11 -12 -10 -8 -9 -8 -7 -9 -7 -6
0 2 5 6 6 7 8 8 8 8 8 7 6 6 5 6 6 6 8 8 7 7 8 7 7 7 7 6 6 5 5 5 5 5 5 5 5 5 4 2 0 -0 -1 -4 -5 -6 -6 -5 -5 -5 -4 -6 -7 -7 -8 -11 -12 -3 6 -2 -5 -9 -9 -10 -12 -9 -10 -11 -7 -7 -10 -8 -5 -4
-3 -2 -1 2 3 4 6 6 7 7 7 6 6 5 4 3 4 3 3 3 3 5 6 6 4 5 5 5 5 4 4 4 4 4 3 4 4 4 2 0 -2 -4 -4 -6 -7 -6 -7 -5 -4 -4 -4 -4 -5 -5 -5 -7 -7 -11 -3 9 -1 -7 -8 -6 -7 -10 -10 -9 -8 -10 -8 -6 -0 5
-2 -3 -3 -3 -2 -0 3 4 6 6 4 3 3 2 2 1 -1 -1 -2 -2 -1 -1 2 3 4 5 5 4 2 3 4 4 4 3 2 3 2 2 1 -0 -2 -4 -4 -5 -7 -7 -6 -5 -3 -3 -3 -2 -10 -9 -8 -10 -13 -12 -9 -3 11 1 -4 -6 -6 -6 -7 -4 -8 -12 -8 -11 -8 -8
-2 -1 -5 -7 -5 -4 -3 -0 3 4 2 1 -1 -0 -4 -4 -4 -6 -8 -8 -5 -3 0 2 3 2 4 4 3 4 3 3 2 2 1 1 -1 -1 -2 -4 -4 -4 -3 -5 -5 -6 -6 -4 -3 -2 -9 -11 -13 -12 -9 -9 -6 -7 -8 -5 8 12 6 1 -3 -4 -5 -8 -6 -7 -7 -8 -8 -8
-6 -6 -7 -9 -7 -7 -4 -0 2 2 -1 -2 -5 -8 -9 -8 -8 1 -7 -8 -8 -3 1 2 2 2 2 2 2 2 3 2 1 -0 -1 -1 -1 -3 -4 -3 -3 -5 -4 -4 -5 -4 -6 -6 -5 -7 -11 -10 -11 -11 -7 -6 -6 -5 -9 -11 -12 5 12 12 8 4 1 -2 -5 -6 -7 -7 -6 -6
-5 -8 -7 -8 -6 -7 -6 -1 1 -0 -4 -8 -11 -13 -11 -11 -11 -11 -14 -13 -12 -7 -3 -1 -0 1 0 0 0 1 2 1 0 -1 -2 -2 -2 -3 -4 -4 -4 -5 -4 -4 -9 -11 -11 -10 -10 -8 -11 -10 -10 -8 -7 -6 -5 -7 -9 -11 -11 -13 -11 7 10 11 11 9 7 3 -0 -3 -9 -10
-4 -4 -8 -11 -10 -11 -9 -7 -5 -4 -4 -6 -8 -9 -9 -12 -14 -15 -14 -15 -15 -14 -13 -7 -4 -2 -2 -2 -2 -2 -1 -0 -1 -2 -3 -3 -3 -3 -4 -6 -8 -10 -10 -13 -14 -15 -15 -14 -14 -10 -9 -9 -11 -9 -7 -7 -6 -6 -6 -9 -11 -13 -11 -13 -13 0 4 5 8 11 12 10 8 5
2 -3 -6 -9 -10 -11 -10 -9 -9 -8 -6 -5 -5 -4 -6 -11 -14 -15 -14 -17 -19 -19 -15 -14 -11 -9 -5 -5 -4 -2 -4 -1 -2 -4 -4 -5 -5 -6 -8 -8 -10 -12 -10 -11 -11 -16 -17 -17 -16 -16 -15 -13 -12 -9 -7 -8 -7 -8 -9 -11 -9 -9 -10 -13 -13 -10 -10 -9 -1 6 9 11 12 13